This is the latest recevied weather packets stored in our database for station/object WD7OO. If no packets are shown the sender has not sent any weather packets the latest 10 day(s).
| Time | Temp. | Humidity | Pressure | Rain* | Wind** | Luminosity | Snow |
|---|---|---|---|---|---|---|---|
| 1777345216 | 15.56° C | 99% | 1005.9 hPa | 7.87 mm | - | 0 W/m² | - |
| 1777344913 | 16.11° C | 99% | 1007.6 hPa | 6.1 mm | - | 0 W/m² | - |
| 1777344609 | 16.11° C | 99% | 1008.5 hPa | 3.05 mm | - | 0 W/m² | - |
| 1777344305 | 16.11° C | 99% | 1008.4 hPa | 4.83 mm | - | 0 W/m² | - |
| 1777344004 | 16.11° C | 99% | 1008.5 hPa | 4.83 mm | - | 0 W/m² | - |
| 1777343700 | 16.11° C | 99% | 1008.7 hPa | 6.1 mm | - | 0 W/m² | - |
| 1777343397 | 16.11° C | 99% | 1008.8 hPa | 7.87 mm | - | 0 W/m² | - |
| 1777343096 | 16.11° C | 99% | 1009 hPa | 10.67 mm | - | 0 W/m² | - |
| 1777342792 | 16.11° C | 99% | 1008.7 hPa | 7.87 mm | - | 0 W/m² | - |
| 1777342489 | 16.11° C | 99% | 1009.1 hPa | 4.83 mm | - | 0 W/m² | - |
| 1777342185 | 16.11° C | 99% | 1009 hPa | 6.6 mm | - | 0 W/m² | - |
| 1777341882 | 16.11° C | 99% | 1009 hPa | 6.6 mm | - | 0 W/m² | - |
| 1777341578 | 16.11° C | 99% | 1009 hPa | 3.05 mm | - | 0 W/m² | - |
| 1777341275 | 16.11° C | 99% | 1008.4 hPa | 0 mm | - | 0 W/m² | - |
| 1777340971 | 16.11° C | 99% | 1008.1 hPa | 0 mm | - | 0 W/m² | - |
| 1777340670 | 16.11° C | 98% | 1007.4 hPa | 0 mm | - | 0 W/m² | - |
| 1777340367 | 16.11° C | 98% | 1006.8 hPa | 0 mm | - | 0 W/m² | - |
| 1777340064 | 16.11° C | 98% | 1005.8 hPa | 0 mm | - | 0 W/m² | - |
| 1777339761 | 16.11° C | 97% | 1005.7 hPa | 0 mm | - | 0 W/m² | - |
| 1777339459 | 16.67° C | 97% | 1005.5 hPa | 0 mm | - | 0 W/m² | - |
| 1777339156 | 16.67° C | 95% | 1005.3 hPa | 7.11 mm | - | 0 W/m² | - |
| 1777338854 | 16.67° C | 94% | 1005.3 hPa | 7.87 mm | - | 0 W/m² | - |
| 1777338551 | 17.22° C | 92% | 1005.6 hPa | 0 mm | - | 0 W/m² | - |
| 1777338249 | 17.22° C | 91% | 1005.5 hPa | 0 mm | - | 0 W/m² | - |
| 1777337943 | 17.22° C | 90% | 1004.9 hPa | 0 mm | - | 0 W/m² | - |
* Rain latest hour (hover to see other rain measurements)
** Current wind speed in m/s (hover to see current wind gust speed)